Location: Ackerson Creek
(37.8210°N, 119.8757°W)
Time: 15:49:34
(UTC+00:00)

Chandra Rocket (1) - Pass Details

Date: 13 April 2024
Orbit: 293 x 10893 km, 28.4° (Epoch: 23 May)

Event Time Altitude Azimuth Distance (km) Brightness Sun altitude
Exits shadow 12:35:39 12° 221° (SW) 1,584 3.6 -10.4°
Maximum altitude 12:38:29 28° 161° (SSE) 1,372 3.8 -9.9°
Drops below altitude 10° 12:45:24 10° 105° (ESE) 3,919 7.1 -8.6°
Sets 12:51:53 0° 98° (E) 6,499 8.6 -7.4°
